Location: ????????
(41.8665°N, 44.2859°E)
Time: 13:32:49
(UTC+00:00)

Daily predictions for brighter satellites

Satellite Brightness Start Highest point End
(mag) Time Altitude Azimuth Time Altitude Azimuth Time Altitude Azimuth
ASTEX 1 3.4 16:41:08 10° SSE 16:46:03 73° E 16:51:00 10° N
Cosmos 2333 Rocket 4.3 16:44:02 10° NNE 16:46:56 14° NE 16:49:51 10° ENE
CZ-4B R/B 3.9 16:44:53 10° SSE 16:48:51 66° ENE 16:52:52 10° N
CZ-4 R/B 1.3 16:45:19 10° SSE 16:48:51 56° ENE 16:52:26 10° N
Cosmos 1782 3.5 16:46:53 10° SSE 16:49:54 27° E 16:52:57 10° NNE
SL-4 R/B 3.9 16:47:13 10° W 16:50:04 20° SW 16:52:57 10° S
Cosmos 2173 Rocket 4.0 16:46:36 10° S 16:52:44 81° E 16:58:59 10° N
Cosmos 2016 Rocket 4.3 16:46:51 10° SSE 16:52:46 47° E 16:58:39 10° NNE
ERS-1 Rocket 3.3 16:48:02 10° SE 16:52:50 49° ENE 16:57:40 10° N
SL-24 R/B 4.2 16:51:37 10° NNE 16:55:59 85° WNW 17:00:17 10° SSW
CZ-4C R/B 3.1 16:52:38 10° WSW 16:56:32 43° NW 17:01:26 10° NNE
CZ-4B DEB 4.3 16:53:27 10° SSE 16:58:54 67° ENE 17:04:23 10° N
Cosmos 2360 Rocket 4.4 16:59:52 10° NNE 17:01:09 11° NE 17:02:26 10° NE
Cosmos 909 Rocket 4.2 16:55:33 10° S 17:01:45 52° ESE 17:07:52 10° NE
CZ-4B R/B 3.6 16:56:33 10° SE 17:01:59 51° ENE 17:07:24 10° N
Cosmos 1816 Rocket 4.5 16:57:28 10° N 17:03:37 72° E 17:09:46 10° SSE
Cosmos 1992 Rocket 4.5 17:03:12 10° S 17:07:59 39° ESE 17:12:47 10° NE
Longmarch 3A Rocket 4.0 17:04:06 10° WSW 17:09:50 17° SSW 17:12:39 10° SSE
NOSS 3-3 (A) 3.5 17:05:53 10° SSW 17:10:49 69° ESE 17:16:38 10° NE
Feng Yun 1-1 Rocket 4.2 17:09:28 10° SSE 17:14:51 88° ENE 17:20:19 10° NNW
Cosmos 1461 3.4 17:12:57 10° S 17:16:09 28° ESE 17:19:22 10° NE
BREEZE-M DEB (TANK) 3.6 17:14:50 10° W 17:17:15 35° SSW 17:21:15 13° SSE
Gbstr 26 Del rocket 3.3 17:15:00 10° WNW 17:20:11 72° SW 17:23:31 17° SE
BREEZE-M DEB (TANK) 3.2 17:17:38 10° WNW 17:20:34 81° NNE 17:26:56 14° ESE
Cosmos 1607 4.5 17:20:33 10° SW 17:26:37 64° NW 17:32:51 10° NNE
Cosmos 2061 Rocket 4.2 17:21:07 10° SSE 17:27:08 54° E 17:33:14 10° NNE
ISS -1.0 17:26:30 10° WNW 17:28:59 19° NNW 17:31:28 10° NE
SL-08 R/B 3.3 17:24:35 10° NNE 17:29:23 67° ESE 17:34:03 10° S
Cosmos 1437 Rocket 3.9 17:29:07 19° ESE 17:29:56 21° E 17:32:40 10° NE
IRS-1A Rocket 4.4 17:25:04 12° SSE 17:30:28 71° ENE 17:36:21 10° N
GEOS 3 Rocket 3.8 17:26:16 14° SSE 17:30:55 71° SW 17:36:19 10° NW
Terra 1.9 17:28:07 10° S 17:32:48 79° WSW 17:37:31 10° NNW
Cosmos 2322 Rocket 4.0 17:29:33 10° N 17:33:30 19° NE 17:37:12 11° E
Cosmos 1302 Rocket 4.4 17:28:39 10° SSW 17:33:47 68° WNW 17:38:58 10° NNE
Cosmos 2082 Rocket 2.5 17:28:38 10° SSW 17:34:20 72° WNW 17:40:04 10° NNE
Cosmos 1626 Rocket 4.4 17:30:51 10° N 17:34:51 34° ENE 17:37:02 21° SE
Cosmos 2237 4.4 17:29:12 10° NNW 17:34:54 64° ENE 17:39:00 19° SE
USA 305 3.2 17:31:49 10° WNW 17:35:45 47° SW 17:37:50 21° SSE
Cosmos 1802 Rocket 4.4 17:31:24 10° SSW 17:37:32 66° W 17:43:39 10° N
ADEOS 3.6 17:33:29 12° SSE 17:38:22 86° WSW 17:43:38 10° NNW
Cosmos 2369 3.7 17:35:23 10° NNW 17:41:09 81° ENE 17:45:15 20° SSE
NOSS 3-3 (C) 3.7 17:37:32 10° SW 17:42:36 84° NW 17:48:37 10° NE
Cosmos 2151 3.9 17:41:02 10° NNE 17:44:39 29° ENE 17:46:01 24° ESE
Cosmos 1743 3.4 17:42:20 10° NNW 17:45:09 37° W 17:47:40 12° SSW
MOS 1-B 4.4 17:42:14 19° SSE 17:46:30 67° ENE 17:52:15 10° N
Delta 2 Rocket 3.9 17:47:12 10° SW 17:49:24 23° S 17:49:24 23° S
Helios 1A Rocket 4.5 17:50:10 10° NNW 17:52:51 26° WNW 17:55:32 10° SW
DELTA 2 R/B (1) 3.5 17:53:36 10° W 17:59:09 71° S 18:02:48 22° E
Okean O Rocket 1.5 17:56:47 25° SSE 17:59:14 89° WSW 18:03:33 10° NNW
CZ-4B R/B 3.3 18:00:19 31° E 18:00:49 33° ENE 18:03:56 10° N
SL-16 R/B 2.5 17:58:58 10° NNW 18:04:31 52° ENE 18:07:14 29° SE
Cosmos 2228 4.1 18:00:39 10° SSW 18:04:32 41° WNW 18:08:26 10° N
Cosmos 2233 Rocket 4.4 17:58:30 10° SSW 18:04:39 65° W 18:10:46 10° N
Cosmos 1891 Rocket 4.5 18:00:32 21° SSE 18:04:40 60° E 18:10:36 10° NNE
Cosmos 1544 Rocket 3.4 18:08:28 24° S 18:11:04 88° E 18:15:24 10° N
USA 186 1.6 18:10:49 55° SW 18:11:04 59° W 18:13:48 10° NNW
COSMOS 2406 3.5 18:09:20 10° SSW 18:15:03 72° WNW 18:20:48 10° NNE
Cosmos 1805 4.1 18:14:02 10° NNE 18:16:28 27° ENE 18:16:28 27° ENE
Cosmos 2084 Rocket 4.4 18:14:25 10° NW 18:18:20 37° WSW 18:19:50 28° SSW
BREEZE-M DEB (TANK) 4.1 18:16:31 10° WNW 18:18:58 19° NNW 18:20:39 10° NNE
Ariane Rocket 3.2 18:17:58 36° SE 18:19:45 54° ENE 18:24:41 10° N
Cosmos 1980 Rocket 4.0 18:15:16 10° NW 18:19:47 25° WSW 18:24:17 10° SSW
Okean-O 3.1 18:17:41 25° SSW 18:19:59 54° W 18:24:18 10° NNW
SPOT 3 Rocket 3.5 18:20:37 36° SSE 18:22:43 76° ENE 18:27:51 10° N
BREEZE-M DEB (TANK) 2.6 18:18:14 10° WSW 18:22:58 67° NNW 18:23:51 36° NE
CZ-2C R/B 3.7 18:24:02 23° NE 18:24:02 23° NE 18:25:37 10° N
Nadezhda 4 Rocket 4.4 18:19:13 10° N 18:25:02 43° ENE 18:27:06 33° ESE
Meteor 1-20 Rocket 4.2 18:19:32 10° N 18:25:10 89° ENE 18:27:50 33° S
Spot 2 Rocket 4.2 18:22:02 20° SSW 18:25:13 48° W 18:30:05 10° NNW
Cosmos 1933 3.2 18:27:19 42° SSW 18:28:28 74° W 18:32:17 10° N
Cosmos 1758 Rocket 3.9 18:27:36 10° NNW 18:31:58 61° W 18:33:37 35° SSW
Cosmos 2333 Rocket 2.2 18:26:29 10° NNW 18:32:13 77° ENE 18:34:15 41° SE
Cosmos 1763 Rocket 3.9 18:33:32 40° ESE 18:33:58 41° ESE 18:38:55 10° NNE
Cosmos 1833 4.5 18:34:12 41° SE 18:35:05 44° ESE 18:40:25 10° NE
Milstar 3 4.4 18:34:03 10° WSW 18:39:10 20° SSW 18:39:43 20° S
Cosmos 1825 Rocket 3.8 18:41:00 10° N 18:45:14 49° E 18:45:21 49° E
Cosmos 2360 Rocket 2.4 18:40:47 10° NNW 18:46:24 58° ENE 18:47:55 44° ESE
CZ-4B R/B 3.3 18:45:46 52° S 18:46:55 79° WSW 18:51:46 10° NNW
Okean 1 3.9 18:48:21 40° NE 18:48:21 40° NE 18:50:55 10° NNE
Cosmos 1602 Rocket 3.8 18:51:55 10° NNW 18:56:10 59° W 18:56:50 52° SW
Cosmos 2058 Rocket 4.4 19:00:13 27° ENE 19:00:13 27° ENE 19:02:58 10° NNE
Meteor 1-25 Rocket 4.5 18:54:05 10° NNW 18:59:39 63° W 19:01:29 41° SSW
Cosmos 2219 Rocket 2.7 18:54:24 10° NNW 18:59:52 46° ENE 19:01:07 40° E
Cosmos 1777 Rocket 3.8 18:54:57 10° NNW 19:00:12 83° ENE 19:01:01 64° SE
USA 290 3.9 19:07:21 32° N 19:07:21 32° N 19:09:18 10° N
ISS -0.9 19:04:32 10° NW 19:06:43 16° N 19:08:27 12° NE
Cosmos 1503 Rocket 3.8 19:03:25 10° NNW 19:08:37 75° ENE 19:09:08 68° ESE
Cosmos 2098 Rocket 3.9 19:07:46 37° SW 19:09:13 50° W 19:13:27 10° N
Cosmos 1464 Rocket 4.1 19:09:12 35° SSW 19:11:51 68° W 19:18:02 10° N
Helios 1A 4.1 19:08:41 10° NNE 19:11:05 32° NE 19:11:05 32° NE
Cosmos 1076 Rocket 3.6 19:11:04 10° N 19:14:52 67° NNE 19:14:52 67° NNE
Cosmos 2322 Rocket 2.1 19:12:28 10° NNW 19:18:08 74° WSW 19:18:59 62° SSW
Cosmos 1486 Rocket 4.2 19:14:30 10° NNW 19:19:40 58° WSW 19:20:20 53° SW
Cosmos 1354 Rocket 3.9 19:17:39 10° NNW 19:22:53 69° ENE 19:23:09 67° E
Cosmos 1606 Rocket 4.5 19:26:21 39° W 19:26:53 41° WNW 19:30:59 10° N
Cosmos 540 Rocket 3.7 19:33:38 53° WSW 19:34:32 63° WNW 19:39:39 10° NNE
Cosmos 1092 Rocket 3.9 19:28:52 10° N 19:35:03 74° E 19:35:51 65° SE
Cosmos 1726 Rocket 4.3 19:35:41 43° WNW 19:35:41 43° WNW 19:39:18 10° N
Meteor 1-26 Rocket 4.0 19:35:05 74° SSW 19:35:37 86° W 19:41:18 10° N
Cosmos 2237 Rocket 4.5 19:32:45 10° NNE 19:35:54 15° NE 19:38:44 11° ENE
Meteor 2-2 Rocket 4.1 19:40:15 78° S 19:40:40 87° E 19:46:27 10° N
Aureole 1 Rocket 4.1 19:35:30 10° NNW 19:41:27 67° ENE 19:42:31 58° ESE
DELTA 2 R/B (1) 4.5 19:39:56 10° W 19:43:28 35° WSW 19:43:28 35° WSW
COSMOS 2428 3.6 19:42:08 10° N 19:47:24 37° ENE 19:48:16 35° ENE
SL-16 R/B 3.8 19:43:54 10° NW 19:48:10 22° W 19:49:05 22° WSW
NOSS 3-4 (A) 4.1 19:42:52 10° NW 19:49:44 57° WSW 19:51:14 50° SSW
NOSS 3-4 (C) 4.1 19:43:29 10° NW 19:50:23 58° WSW 19:51:53 50° SSW
Cosmos 468 Rocket 3.9 19:50:33 83° NW 19:50:33 83° NW 19:55:47 10° NNE
Cosmos-2242 4.0 19:57:48 41° NW 19:57:48 41° NW 20:01:00 10° N
USA 234 3.4 19:54:10 10° NE 19:59:51 52° ESE 19:59:51 52° ESE
Cosmos 2279 Rocket 3.8 20:08:45 79° SSE 20:09:09 86° E 20:15:27 10° N
ACS3 Solar Sail 4.0 20:09:32 10° ENE 20:10:14 10° E 20:10:22 10° E
Cosmos 1634 Rocket 4.2 20:13:08 55° WSW 20:13:59 61° W 20:20:08 10° N
CZ-2C R/B 4.3 20:09:17 10° NNE 20:13:51 33° E 20:13:51 33° E
Cosmos 2333 Rocket 4.3 20:12:41 10° WNW 20:15:45 15° W 20:16:16 15° WSW
Meteor 1-14 Rocket 4.2 20:11:31 10° N 20:16:48 74° NE 20:16:48 74° NE
SL-08 ROCKET BODY 4.3 20:12:13 10° N 20:18:25 86° W 20:18:40 83° SSW
Cosmos 2297 Rocket 3.0 20:19:59 38° ENE 20:19:59 38° ENE 20:24:06 10° NE
Helios 1B rocket 4.4 20:21:14 21° NW 20:21:14 21° NW 20:22:39 10° NNW
Cosmos 2221 3.7 20:22:50 38° N 20:22:50 38° N 20:25:27 10° N
Cosmos 1898 Rocket 3.7 20:17:16 10° NNW 20:21:54 67° NNE 20:21:54 67° NNE
CZ-2C R/B 4.4 20:22:43 10° N 20:26:14 50° NNW 20:26:14 50° NNW
Cosmos 44 4.0 20:24:22 10° NW 20:28:39 52° WNW 20:28:39 52° WNW
Cosmos 2360 Rocket 3.9 20:25:51 10° NW 20:29:39 20° W 20:29:39 20° W
Cosmos 2322 3.7 20:26:32 10° NNW 20:31:53 79° NNW 20:31:53 79° NNW
Cosmos 2266 Rocket 3.8 20:36:13 10° N 20:42:17 76° E 20:42:18 76° E
GP-B 4.2 20:38:48 10° N 20:41:42 40° NNE 20:41:42 40° NNE
Cosmos 2219 Rocket 3.7 20:38:54 10° NW 20:42:48 25° W 20:42:48 25° W
ISS -0.6 20:41:03 10° NW 20:41:24 12° NW 20:41:24 12° NW
Cosmos 841 Rocket 4.0 20:48:19 52° WNW 20:48:19 52° WNW 20:53:13 10° N
Meteor 1-19 Rocket 4.4 20:49:52 63° WNW 20:49:52 63° WNW 20:55:45 10° N
ARIANE 5 R/B 4.0 20:54:55 33° NW 20:54:55 33° NW 20:57:43 10° NNW
ALOS 2 3.9 20:56:35 35° NW 20:56:35 35° NW 20:59:22 10° NNW
RESURS DK-1 4.4 20:55:50 10° NW 20:57:22 22° NW 20:57:22 22° NW
SL-16 R/B 4.3 21:04:09 10° N 21:08:26 21° NE 21:11:57 13° E
Cosmos 1655 Rocket 4.1 21:03:57 10° N 21:10:09 62° E 21:10:33 61° E
Lacrosse 4 Rocket 3.1 21:16:34 29° NNE 21:16:34 29° NNE 21:18:40 10° NNE
CZ-2C R/B 2.7 21:17:31 72° N 21:17:31 72° N 21:22:13 10° NNW
Cosmos 2237 Rocket 2.2 21:15:09 10° NNW 21:20:30 78° N 21:20:30 78° N
Cosmos 1980 3.7 21:19:18 10° NNW 21:24:26 73° NW 21:24:26 73° NW
Iridium 4 Rocket 3.9 21:25:13 65° E 21:25:13 65° E 21:30:50 10° N
Cosmos 2227 Rocket 2.4 21:29:18 64° ENE 21:29:18 64° ENE 21:34:26 10° NNE
Meteor 2-4 Rocket 3.7 21:29:47 70° NW 21:29:47 70° NW 21:34:52 10° N
Cosmos 1932 4.5 21:31:00 72° SE 21:31:05 72° ESE 21:37:38 10° NE
COSMOS 2428 3.9 21:26:30 10° NW 21:30:13 30° WNW 21:30:13 30° WNW
NOSS 0 Rocket 4.5 21:26:27 10° NW 21:31:29 44° W 21:31:29 44° W
Cosmos 2263 Rocket 2.7 21:39:15 49° E 21:39:15 49° E 21:44:10 10° NE
BREEZE-M DEB (TANK) 4.5 21:20:00 10° WNW 21:40:21 83° SW 21:42:03 54° SE
ATLAS 5 CENTAUR R/B 3.4 21:40:01 57° SE 21:40:29 58° ESE 21:55:08 10° NE
USA 234 3.9 21:37:16 10° NE 21:43:32 50° NNW 21:47:10 25° W
Cosmos 1151 Rocket 4.3 21:48:34 35° ENE 21:48:34 35° ENE 21:51:40 10° NNE
SeaSat 1 2.6 21:49:01 68° NE 21:49:01 68° NE 21:53:42 10° NNW
ACS3 Solar Sail 1.6 21:47:27 10° NNE 21:53:29 77° ESE 21:53:51 74° SE
CZ-2C R/B 4.2 21:49:00 10° N 21:54:12 36° WNW 21:54:49 35° W
Cosmos 1500 Rocket 4.5 21:56:04 10° N 21:59:56 44° ENE 21:59:56 44° ENE
Cosmos 2297 Rocket 3.5 22:01:44 26° WNW 22:02:57 29° NW 22:07:49 10° N
BlueWalker 3 3.9 22:07:42 25° N 22:07:42 25° N 22:09:59 10° NE
Nadezhda 2 Rocket 4.3 22:03:26 10° N 22:09:37 90° NNE 22:10:24 71° S
Cosmos 1125 Rocket 4.0 22:04:28 10° N 22:09:40 54° ENE 22:10:39 47° ESE
Cosmos 2082 4.3 22:11:15 42° ESE 22:11:35 43° ESE 22:16:52 10° NE
Okean 3 Rocket 4.2 22:08:37 10° NNW 22:12:07 51° NNW 22:12:07 51° NNW
Meteor 2-10 Rocket 4.1 22:10:58 10° NNW 22:16:03 50° W 22:16:03 50° W
Cosmos 1553 Rocket 3.9 22:16:07 64° SW 22:16:56 72° W 22:23:22 10° N
Cosmos 1340 Rocket 3.8 22:15:57 10° N 22:18:42 42° NNE 22:18:42 42° NNE
Sich 1 4.3 22:19:50 10° NNW 22:22:23 32° NW 22:22:23 32° NW
Atlas Centaur 2 4.0 22:29:10 25° SE 22:29:10 25° SE 22:33:35 10° ESE
BREEZE-M DEB (TANK) 3.9 22:14:58 10° WSW 22:28:26 60° NNW 22:32:33 10° NE
Cosmos 1805 Rocket 3.9 22:24:43 10° N 22:28:13 57° NNW 22:28:13 57° NNW
SL-08 R/B 4.5 22:26:08 10° NNW 22:32:20 62° W 22:33:06 58° SW
CENTAUR R/B 3.2 22:32:14 32° SE 22:33:02 33° ESE 22:38:35 10° NE
Cosmos 1743 Rocket 3.7 22:29:43 10° N 22:33:48 66° ENE 22:33:48 66° ENE
Cosmos 1386 Rocket 4.4 22:31:42 10° N 22:38:02 76° W 22:39:24 57° SSW
Cosmos 2208 Rocket 4.4 22:38:38 49° SE 22:39:25 54° ESE 22:44:33 10° NNE
Cosmos 1953 3.5 22:36:29 10° N 22:39:49 33° ENE 22:39:49 33° ENE
IDEFIX/ARIANE 42P 2.6 22:36:21 10° NNE 22:41:35 70° ESE 22:42:24 59° SSE
FENGYUN 3A 4.1 22:38:31 10° NNE 22:43:49 54° E 22:45:07 44° SE
CZ-2D R/B 4.2 22:45:49 10° NE 22:49:44 20° E 22:53:17 11° SE
Cosmos 1745 Rocket 3.8 22:45:34 10° N 22:51:42 78° W 22:53:22 51° S
Cosmos 2219 3.1 22:51:04 59° SW 22:52:06 75° WNW 22:57:45 10° NNE
Cosmos 2084 3.4 22:48:39 10° NNW 22:52:43 75° NE 22:52:43 75° NE
Cosmos 1408 Rocket 4.5 22:48:47 10° NNW 22:51:52 35° WNW 22:51:52 35° WNW
SL-16 R/B 2.1 22:47:23 10° NNW 22:53:01 65° WSW 22:53:45 59° SSW
Lacrosse 4 Rocket 4.0 22:51:59 10° WNW 22:53:01 11° NW 22:54:03 10° NNW
Cosmos 1328 Rocket 3.7 22:56:34 58° SE 22:57:04 63° E 23:01:26 10° NNE
NPP 3.7 22:52:45 10° NNE 22:58:09 75° ESE 22:59:35 49° S
Envisat 4.4 22:56:58 10° NNE 23:01:27 31° E 23:03:58 21° SE
Cosmos 2237 Rocket 4.3 23:01:34 10° WNW 23:02:17 11° WNW 23:02:17 11° WNW
Cosmos 1703 4.3 23:10:38 29° NNW 23:10:38 29° NNW 23:12:35 10° N
Tiangong 0.0 23:12:54 20° ESE 23:12:54 20° ESE 23:14:04 10° ESE
Cosmos 2227 Rocket 4.0 23:11:04 16° W 23:13:21 20° NW 23:17:31 10° N
USA 281 4.2 23:07:33 10° SE 23:13:44 46° ENE 23:19:56 10° NNW
ALOS 3.9 23:10:01 10° NE 23:13:52 27° E 23:16:28 16° SE
ADEOS Rocket 3.4 23:11:41 10° NNE 23:19:22 82° WNW 23:22:56 33° SSW
Meteor 1-22 Rocket 4.2 23:14:41 10° NNW 23:20:22 63° W 23:22:05 42° SSW
Cosmos 2263 Rocket 3.6 23:20:54 21° W 23:22:57 25° NW 23:27:32 10° N
Cosmos 1867 4.5 23:17:39 10° NNW 23:22:58 50° NE 23:28:15 10° SE
BREEZE-M DEB (TANK) 3.3 23:23:10 17° WNW 23:25:35 90° S 23:35:17 10° ESE
Cosmos 2227 4.2 23:24:20 38° SSW 23:26:38 79° ESE 23:32:23 10° NNE
MOZ.5/SAFIR/RUBIN 5/SL-8 3.9 23:25:30 24° SSE 23:28:14 73° ENE 23:32:49 10° N
USA 81 3.9 23:26:00 10° N 23:31:17 82° W 23:33:51 31° S
Geosat FO 4.5 23:30:55 10° NE 23:33:14 52° E 23:33:14 52° E
ACS3 Solar Sail 3.5 23:31:20 10° NNW 23:35:06 18° WNW 23:37:20 14° W
Cosmos 1633 Rocket 2.9 23:30:54 10° NNW 23:35:11 67° W 23:36:21 45° SSW
Cosmos 1470 Rocket 3.5 23:32:26 10° N 23:36:49 81° E 23:39:09 27° SSE
ADEOS II 3.3 23:32:16 10° NNE 23:37:06 37° E 23:41:26 12° SSE
NOSS 2-2 (E) 2.8 23:37:09 64° S 23:37:34 75° ESE 23:40:39 10° NE
Cosmos 1943 3.1 23:31:57 10° NNW 23:37:34 74° WSW 23:42:31 13° SSE
Meteor 1-23 Rocket 4.2 23:40:58 32° SSW 23:43:43 70° W 23:49:25 10° N
ATLAS 2AS CENTAUR R/B 2.6 23:38:22 10° NW 23:45:11 88° SW 23:52:01 10° SSE
Meteor 1-12 Rocket 4.4 23:41:41 10° N 23:47:22 72° E 23:52:59 10° SSE
Cosmos 2298 Rocket 4.0 23:43:23 10° NNW 23:48:40 68° WSW 23:52:59 15° S
Cosmos 2285 Rocket 4.0 23:42:32 10° NNW 23:48:53 86° ENE 23:55:12 10° SSE
Resurs 1-4 Rocket 2.2 23:43:46 10° NNE 23:49:03 74° ESE 23:52:31 22° S
Cosmos 1844 Rocket 2.7 23:50:47 30° SW 23:53:35 65° WNW 23:59:08 10° NNE
Okean 2 3.2 23:54:00 39° SSW 23:55:13 65° W 23:59:02 10° N
